Location: West Chester
(39.9610°N, 75.6060°W)
Time: 17:08:09
(UTC-04:00)

Envisat - Visible Passes

Search period start: 19 September 2024 00:00
Search period end: 29 September 2024 00:00
Orbit: 762 x 764 km, 98.3° (Epoch: 19 September)

Date Brightness Start Highest point End Pass type
(mag) Time Alt. Az. Time Alt. Az. Time Alt. Az.
19 Sep 3.0 04:19:49 10° N 04:24:23 71° N 04:24:23 71° N visible
20 Sep 4.2 03:42:34 10° NNE 03:46:23 38° ENE 03:46:23 38° ENE visible
20 Sep 4.2 05:22:13 10° NNW 05:26:03 22° WNW 05:26:32 22° WNW visible
21 Sep 5.4 03:06:08 10° NE 03:08:23 17° ENE 03:08:23 17° ENE visible
21 Sep 3.3 04:44:01 10° N 04:48:31 47° WNW 04:48:31 47° WNW visible
22 Sep 3.5 04:06:25 10° NNE 04:10:30 56° NE 04:10:30 56° NE visible
22 Sep 4.7 05:47:25 10° NNW 05:49:49 13° WNW 05:50:39 13° WNW visible
23 Sep 4.8 03:29:24 10° NNE 03:32:30 27° ENE 03:32:30 27° ENE visible
23 Sep 3.9 05:08:28 10° N 05:12:38 29° WNW 05:12:38 29° WNW visible
24 Sep 5.8 02:53:33 10° ENE 02:54:29 12° ENE 02:54:29 12° ENE visible
24 Sep 3.3 04:30:31 10° N 04:34:38 54° NNW 04:34:38 54° NNW visible
25 Sep 4.1 03:53:06 10° NNE 03:56:37 41° NE 03:56:37 41° NE visible
25 Sep 4.5 05:33:16 10° NNW 05:36:35 18° WNW 05:36:45 18° WNW visible
26 Sep 5.3 03:16:21 10° NE 03:18:35 20° ENE 03:18:35 20° ENE visible
26 Sep 3.7 04:54:49 10° N 04:58:44 36° NW 04:58:44 36° NW visible
27 Sep 3.6 04:17:03 10° NNE 04:20:43 49° N 04:20:43 49° N visible
27 Sep 4.9 05:59:20 10° NW 06:00:17 10° WNW 06:00:51 10° WNW visible
28 Sep 4.7 03:39:50 10° NNE 03:42:42 29° NE 03:42:42 29° NE visible
28 Sep 4.3 05:19:23 10° NNW 05:22:50 23° WNW 05:22:50 23° WNW visible
